SBI1871 VOBL-VECC

Flight info

Callsign SBI1871
Flight time N/A
Altitude 37000
Route ANIRO8A ANIRO W47 VVZ A465 KAKID KAKID2A
Aircraft B38M/M-SDE1FGHILORVWXY/HB1

Departure

Time N/A
Airport Kempegowda International Airport Bengaluru (VOBL)

Arrival

Time 2026-04-26 03:23
Airport Netaji Subhash Chandra Bose International Airport (VECC)
Time Latitude Longitude Altitude Speed Heading
2026-04-26 01:15 13.72395 78.27822 20583 ft 395 kts 46°
2026-04-26 01:15 13.74324 78.29859 21122 ft 399 kts 46°
2026-04-26 01:16 13.76270 78.31915 21673 ft 403 kts 46°
2026-04-26 01:16 13.78237 78.33993 22197 ft 407 kts 46°
2026-04-26 01:16 13.80230 78.36098 22721 ft 411 kts 46°
2026-04-26 01:16 13.82236 78.38218 23241 ft 416 kts 46°
2026-04-26 01:17 13.84262 78.40360 23706 ft 420 kts 46°
2026-04-26 01:17 13.86308 78.42524 24129 ft 424 kts 46°
2026-04-26 01:17 13.88377 78.44713 24557 ft 428 kts 46°
2026-04-26 01:17 13.90441 78.46896 24984 ft 432 kts 46°
2026-04-26 01:18 13.92551 78.49129 25396 ft 436 kts 46°
2026-04-26 01:18 13.94674 78.51377 25796 ft 440 kts 46°
2026-04-26 01:18 13.96825 78.53655 26207 ft 444 kts 46°
2026-04-26 01:18 13.98991 78.55949 26617 ft 448 kts 46°
2026-04-26 01:19 14.01174 78.58261 27027 ft 452 kts 46°
2026-04-26 01:19 14.03358 78.60560 27426 ft 456 kts 44°
2026-04-26 01:19 14.05795 78.62677 27822 ft 460 kts 39°
2026-04-26 01:19 14.08313 78.64734 28208 ft 463 kts 38°
2026-04-26 01:20 14.10858 78.66808 28597 ft 467 kts 39°
2026-04-26 01:20 14.13378 78.68896 28973 ft 471 kts 39°
2026-04-26 01:20 14.15932 78.71024 29344 ft 474 kts 39°
2026-04-26 01:20 14.18522 78.73163 29716 ft 478 kts 39°
2026-04-26 01:21 14.21139 78.75316 30068 ft 482 kts 39°
2026-04-26 01:21 14.23774 78.77493 30376 ft 485 kts 39°
2026-04-26 01:21 14.26384 78.79657 30689 ft 489 kts 39°
2026-04-26 01:21 14.29041 78.81860 31005 ft 491 kts 40°
2026-04-26 01:22 14.31624 78.84159 31472 ft 490 kts 40°
2026-04-26 01:22 14.34252 78.86408 31913 ft 489 kts 39°
2026-04-26 01:22 14.36877 78.88646 32364 ft 489 kts 40°
2026-04-26 01:22 14.39460 78.90927 32799 ft 489 kts 41°
2026-04-26 01:23 14.42037 78.93226 33220 ft 489 kts 40°
2026-04-26 01:23 14.44633 78.95497 33662 ft 489 kts 40°
2026-04-26 01:23 14.47240 78.97758 34071 ft 489 kts 40°
2026-04-26 01:23 14.49805 79.00006 34446 ft 489 kts 40°
2026-04-26 01:24 14.52392 79.02290 34827 ft 489 kts 40°
2026-04-26 01:24 14.54987 79.04572 35170 ft 489 kts 40°
2026-04-26 01:24 14.57590 79.06849 35526 ft 489 kts 39°
2026-04-26 01:24 14.60188 79.09126 35891 ft 489 kts 40°
2026-04-26 01:25 14.62752 79.11383 36256 ft 489 kts 39°
2026-04-26 01:25 14.65347 79.13667 36610 ft 489 kts 39°
2026-04-26 01:25 14.67937 79.15942 36859 ft 485 kts 39°
2026-04-26 01:25 14.70498 79.18192 36873 ft 479 kts 39°
2026-04-26 01:26 14.75565 79.22650 36857 ft 477 kts 39°
2026-04-26 01:26 14.80599 79.27082 36860 ft 478 kts 39°
2026-04-26 01:27 14.84808 79.30789 36857 ft 477 kts 39°
2026-04-26 01:27 14.89860 79.35242 36867 ft 477 kts 39°
2026-04-26 01:28 14.94917 79.39702 36870 ft 477 kts 39°
2026-04-26 01:28 14.99972 79.44177 36865 ft 478 kts 40°
2026-04-26 01:29 15.05035 79.48750 36887 ft 495 kts 40°
2026-04-26 01:29 15.10339 79.53494 36877 ft 512 kts 40°
2026-04-26 01:30 15.15810 79.58418 36879 ft 527 kts 40°
2026-04-26 01:30 15.21225 79.63285 36850 ft 502 kts 40°
2026-04-26 01:31 15.23832 79.65629 36848 ft 486 kts 40°
2026-04-26 01:31 15.26352 79.67898 36866 ft 472 kts 40°
2026-04-26 01:31 15.31249 79.72305 36851 ft 469 kts 40°
2026-04-26 01:32 15.36238 79.76798 36865 ft 476 kts 40°
2026-04-26 01:32 15.41242 79.81311 36868 ft 475 kts 39°
2026-04-26 01:33 15.46251 79.85827 36870 ft 477 kts 39°
2026-04-26 01:33 15.51227 79.90320 36873 ft 478 kts 39°
2026-04-26 01:34 15.56242 79.94848 36875 ft 478 kts 39°
2026-04-26 01:34 15.61263 79.99387 36871 ft 478 kts 39°
2026-04-26 01:35 15.66283 80.03927 36869 ft 477 kts 39°
2026-04-26 01:35 15.71285 80.08454 36874 ft 476 kts 39°
2026-04-26 01:36 15.76248 80.12949 36875 ft 476 kts 39°
2026-04-26 01:37 15.83765 80.19762 36877 ft 475 kts 39°
2026-04-26 01:37 15.88713 80.24251 36863 ft 475 kts 39°
2026-04-26 01:38 15.93703 80.28780 36874 ft 475 kts 39°
2026-04-26 01:38 15.98659 80.33283 36869 ft 476 kts 39°
2026-04-26 01:39 16.03651 80.37820 36874 ft 477 kts 39°
2026-04-26 01:39 16.08657 80.42375 36880 ft 477 kts 39°
2026-04-26 01:40 16.13654 80.46924 36880 ft 477 kts 39°
2026-04-26 01:40 16.18624 80.51451 36865 ft 478 kts 39°
2026-04-26 01:41 16.23621 80.56006 36862 ft 475 kts 39°
2026-04-26 01:41 16.28593 80.60542 36862 ft 475 kts 39°
2026-04-26 01:42 16.33545 80.65062 36865 ft 475 kts 39°
2026-04-26 01:42 16.38530 80.69615 36870 ft 476 kts 39°
2026-04-26 01:43 16.43494 80.74153 36882 ft 476 kts 39°
2026-04-26 01:43 16.48474 80.78710 36883 ft 476 kts 39°
2026-04-26 01:44 16.53419 80.83332 36899 ft 479 kts 49°
2026-04-26 01:44 16.55309 80.86191 36896 ft 481 kts 61°
2026-04-26 01:44 16.56804 80.89304 36900 ft 480 kts 66°
2026-04-26 01:45 16.59470 80.95686 36889 ft 478 kts 64°
2026-04-26 01:45 16.62567 81.01787 36885 ft 478 kts 63°
2026-04-26 01:46 16.65473 81.08033 36875 ft 479 kts 64°
2026-04-26 01:46 16.68474 81.14244 36869 ft 479 kts 63°
2026-04-26 01:47 16.71421 81.20431 36876 ft 479 kts 64°
2026-04-26 01:47 16.74396 81.26672 36877 ft 480 kts 63°
2026-04-26 01:48 16.77367 81.32895 36880 ft 478 kts 64°
2026-04-26 01:48 16.80321 81.39109 36875 ft 478 kts 64°
2026-04-26 01:49 16.83280 81.45320 36872 ft 477 kts 64°
2026-04-26 01:49 16.86212 81.51495 36878 ft 477 kts 64°
2026-04-26 01:50 16.89171 81.57722 36883 ft 481 kts 64°
2026-04-26 01:50 16.92139 81.63981 36877 ft 480 kts 64°
2026-04-26 01:51 16.95102 81.70232 36875 ft 479 kts 64°
2026-04-26 01:51 16.98042 81.76441 36875 ft 479 kts 64°
2026-04-26 01:52 17.01000 81.82694 36879 ft 479 kts 64°
2026-04-26 01:52 17.03936 81.88906 36881 ft 479 kts 64°
2026-04-26 01:53 17.06888 81.95159 36876 ft 479 kts 64°
2026-04-26 01:53 17.09840 82.01418 36876 ft 479 kts 64°
2026-04-26 01:54 17.12768 82.07633 36875 ft 479 kts 64°
2026-04-26 01:54 17.15713 82.13888 36876 ft 479 kts 64°
2026-04-26 01:55 17.18616 82.20163 36881 ft 479 kts 64°
2026-04-26 01:55 17.21525 82.26452 36882 ft 479 kts 64°
2026-04-26 01:56 17.24416 82.32699 36882 ft 479 kts 64°
2026-04-26 01:56 17.27322 82.38999 36889 ft 481 kts 64°
2026-04-26 01:57 17.30237 82.45311 36884 ft 482 kts 64°
2026-04-26 01:57 17.33149 82.51634 36889 ft 481 kts 64°
2026-04-26 01:58 17.36037 82.57902 36883 ft 480 kts 64°
2026-04-26 01:58 17.38941 82.64216 36880 ft 480 kts 64°
2026-04-26 01:59 17.41826 82.70494 36877 ft 480 kts 64°
2026-04-26 01:59 17.44721 82.76800 36878 ft 480 kts 64°
2026-04-26 02:00 17.47621 82.83122 36895 ft 481 kts 64°
2026-04-26 02:00 17.50518 82.89447 36891 ft 482 kts 64°
2026-04-26 02:01 17.53402 82.95747 36877 ft 482 kts 64°
2026-04-26 02:01 17.56302 83.02090 36875 ft 481 kts 64°
2026-04-26 02:02 17.59181 83.08393 36861 ft 481 kts 64°
2026-04-26 02:02 17.62076 83.14737 36851 ft 481 kts 64°
2026-04-26 02:03 17.64961 83.21065 36855 ft 484 kts 64°
2026-04-26 02:03 17.68216 83.27210 36868 ft 482 kts 52°
2026-04-26 02:04 17.72333 83.32772 36858 ft 481 kts 50°
2026-04-26 02:04 17.76342 83.38348 36863 ft 481 kts 52°
2026-04-26 02:05 17.80396 83.43948 36879 ft 480 kts 51°
2026-04-26 02:05 17.84438 83.49530 36872 ft 481 kts 52°
2026-04-26 02:06 17.88472 83.55129 36871 ft 481 kts 51°
2026-04-26 02:06 17.92503 83.60702 36867 ft 482 kts 51°
2026-04-26 02:07 17.96552 83.66327 36878 ft 482 kts 51°
2026-04-26 02:07 18.00613 83.71959 36877 ft 483 kts 51°
2026-04-26 02:08 18.04648 83.77567 36879 ft 484 kts 51°
2026-04-26 02:08 18.08715 83.83220 36881 ft 484 kts 51°
2026-04-26 02:09 18.12773 83.88869 36879 ft 483 kts 51°
2026-04-26 02:09 18.16824 83.94512 36868 ft 483 kts 51°
2026-04-26 02:10 18.20874 84.00158 36872 ft 483 kts 51°
2026-04-26 02:10 18.24897 84.05771 36870 ft 483 kts 51°
2026-04-26 02:11 18.28949 84.11430 36868 ft 484 kts 51°
2026-04-26 02:11 18.33023 84.17073 36868 ft 484 kts 51°
2026-04-26 02:12 18.37081 84.22691 36870 ft 484 kts 51°
2026-04-26 02:12 18.41148 84.28337 36865 ft 483 kts 51°
2026-04-26 02:13 18.45215 84.33978 36867 ft 483 kts 51°
2026-04-26 02:13 18.49274 84.39622 36864 ft 483 kts 51°
2026-04-26 02:14 18.53330 84.45260 36864 ft 483 kts 51°
2026-04-26 02:14 18.57361 84.50871 36862 ft 483 kts 51°
2026-04-26 02:15 18.61415 84.56518 36864 ft 482 kts 51°
2026-04-26 02:15 18.64796 84.61233 36864 ft 483 kts 51°
2026-04-26 02:16 18.69506 84.67806 36858 ft 483 kts 51°
2026-04-26 02:16 18.72877 84.72514 36858 ft 483 kts 51°
2026-04-26 02:17 18.76937 84.78190 36861 ft 484 kts 51°
2026-04-26 02:17 18.80995 84.83867 36863 ft 484 kts 51°
2026-04-26 02:18 18.85047 84.89530 36860 ft 483 kts 50°
2026-04-26 02:18 18.89124 84.95110 36859 ft 482 kts 50°
2026-04-26 02:19 18.93191 85.00741 36854 ft 482 kts 50°
2026-04-26 02:19 18.97280 85.06378 36856 ft 483 kts 50°
2026-04-26 02:20 19.01353 85.12010 36856 ft 483 kts 50°
2026-04-26 02:20 19.05426 85.17646 36860 ft 483 kts 50°
2026-04-26 02:21 19.09494 85.23278 36862 ft 484 kts 50°
2026-04-26 02:21 19.13814 85.28735 36858 ft 482 kts 44°
2026-04-26 02:22 19.18428 85.33880 36862 ft 481 kts 44°
2026-04-26 02:22 19.23004 85.39014 36860 ft 481 kts 44°
2026-04-26 02:23 19.27605 85.44173 36857 ft 481 kts 44°
2026-04-26 02:23 19.32187 85.49311 36858 ft 482 kts 44°
2026-04-26 02:24 19.36804 85.54495 36852 ft 482 kts 44°
2026-04-26 02:24 19.41416 85.59676 36864 ft 483 kts 43°
2026-04-26 02:25 19.46007 85.64840 36857 ft 484 kts 43°
2026-04-26 02:25 19.50622 85.70035 36849 ft 483 kts 43°
2026-04-26 02:26 19.55220 85.75214 36844 ft 482 kts 43°
2026-04-26 02:26 19.59818 85.80399 36843 ft 482 kts 43°
2026-04-26 02:27 19.64388 85.85556 36842 ft 481 kts 43°
2026-04-26 02:27 19.68984 85.90748 36844 ft 481 kts 43°
2026-04-26 02:28 19.73550 85.95910 36846 ft 482 kts 43°
2026-04-26 02:28 19.78147 86.01112 36846 ft 484 kts 43°
2026-04-26 02:29 19.82760 86.06338 36846 ft 484 kts 43°
2026-04-26 02:29 19.87350 86.11542 36851 ft 485 kts 43°
2026-04-26 02:30 19.91961 86.16778 36844 ft 484 kts 43°
2026-04-26 02:30 19.96467 86.22125 36839 ft 484 kts 44°
2026-04-26 02:31 20.00978 86.27416 36840 ft 484 kts 44°
2026-04-26 02:31 20.05512 86.32714 36836 ft 482 kts 42°
2026-04-26 02:32 20.10062 86.37903 36856 ft 483 kts 43°
2026-04-26 02:32 20.14692 86.43162 36845 ft 485 kts 42°
2026-04-26 02:33 20.19290 86.48380 36851 ft 486 kts 43°
2026-04-26 02:33 20.23907 86.53643 36849 ft 486 kts 42°
2026-04-26 02:34 20.28530 86.58899 36842 ft 485 kts 42°
2026-04-26 02:34 20.33132 86.64151 36574 ft 485 kts 42°
2026-04-26 02:34 20.35447 86.66787 36240 ft 487 kts 42°
2026-04-26 02:35 20.37735 86.69397 35923 ft 488 kts 42°
2026-04-26 02:35 20.40060 86.72054 35632 ft 489 kts 42°
2026-04-26 02:35 20.42382 86.74708 35319 ft 490 kts 42°
2026-04-26 02:35 20.44693 86.77347 34688 ft 493 kts 41°
2026-04-26 02:36 20.47047 86.80036 33980 ft 495 kts 42°
2026-04-26 02:36 20.49402 86.82732 33226 ft 496 kts 42°
2026-04-26 02:36 20.51754 86.85425 32494 ft 496 kts 42°
2026-04-26 02:36 20.54099 86.88111 31776 ft 495 kts 42°
2026-04-26 02:37 20.56447 86.90799 31044 ft 495 kts 42°
2026-04-26 02:37 20.58797 86.93492 30311 ft 494 kts 43°
2026-04-26 02:37 20.61141 86.96181 29546 ft 494 kts 43°
2026-04-26 02:37 20.63444 86.98824 28830 ft 490 kts 43°
2026-04-26 02:38 20.65678 87.01556 28140 ft 490 kts 53°
2026-04-26 02:38 20.67190 87.04814 27442 ft 492 kts 69°
2026-04-26 02:38 20.68119 87.08328 26718 ft 490 kts 76°
2026-04-26 02:38 20.68820 87.11877 26010 ft 487 kts 77°
2026-04-26 02:39 20.69538 87.15407 25302 ft 483 kts 74°
2026-04-26 02:39 20.70520 87.18826 24600 ft 478 kts 68°
2026-04-26 02:39 20.71735 87.22071 23902 ft 474 kts 64°
2026-04-26 02:39 20.73035 87.25299 23173 ft 471 kts 65°
2026-04-26 02:40 20.74188 87.28567 22467 ft 466 kts 69°
2026-04-26 02:40 20.75200 87.31844 21797 ft 460 kts 70°
2026-04-26 02:40 20.76235 87.35013 21134 ft 453 kts 68°
2026-04-26 02:40 20.77344 87.38129 20612 ft 443 kts 67°
2026-04-26 02:41 20.78407 87.41165 20398 ft 427 kts 68°
2026-04-26 02:41 20.79384 87.44101 20247 ft 410 kts 67°
2026-04-26 02:41 20.80775 87.46654 20106 ft 387 kts 43°
2026-04-26 02:41 20.82879 87.48281 19983 ft 364 kts 21°
2026-04-26 02:42 20.85188 87.49228 19834 ft 348 kts 13°
2026-04-26 02:42 20.87446 87.49923 19689 ft 336 kts 11°
2026-04-26 02:42 20.89680 87.50542 19544 ft 326 kts 10°
2026-04-26 02:42 20.91860 87.51135 19398 ft 318 kts 14°
2026-04-26 02:43 20.94779 87.54420 19224 ft 317 kts 77°
2026-04-26 02:43 20.94719 87.56730 19158 ft 310 kts 110°
2026-04-26 02:43 20.94070 87.58867 19066 ft 303 kts 105°
2026-04-26 02:44 20.93619 87.61064 18954 ft 304 kts 90°
2026-04-26 02:44 20.94048 87.63258 18933 ft 306 kts 59°
2026-04-26 02:44 20.95193 87.65164 18854 ft 302 kts 49°
2026-04-26 02:44 20.96490 87.66892 18833 ft 293 kts 46°
2026-04-26 02:45 20.97791 87.68535 18837 ft 294 kts 46°
2026-04-26 02:45 20.99162 87.70235 18860 ft 309 kts 45°
2026-04-26 02:45 21.00591 87.71993 18894 ft 313 kts 45°
2026-04-26 02:45 21.02003 87.73735 18897 ft 305 kts 45°
2026-04-26 02:46 21.03358 87.75412 18892 ft 298 kts 45°
2026-04-26 02:46 21.04724 87.77104 18897 ft 305 kts 45°
2026-04-26 02:46 21.06164 87.78878 18928 ft 327 kts 45°
2026-04-26 02:46 21.07706 87.80722 18957 ft 331 kts 38°
2026-04-26 02:47 21.09614 87.81956 19002 ft 313 kts 17°
2026-04-26 02:47 21.11608 87.82839 18992 ft 315 kts 29°
2026-04-26 02:47 21.13315 87.84343 19005 ft 319 kts 41°
2026-04-26 02:47 21.14849 87.86078 19021 ft 322 kts 44°
2026-04-26 02:48 21.16314 87.87853 19052 ft 321 kts 45°
2026-04-26 02:48 21.17858 87.89582 19042 ft 318 kts 31°
2026-04-26 02:48 21.19655 87.90956 19026 ft 319 kts 38°
2026-04-26 02:48 21.21234 87.92640 18978 ft 321 kts 43°
2026-04-26 02:49 21.22732 87.94421 18712 ft 321 kts 45°
2026-04-26 02:49 21.24183 87.96208 18652 ft 312 kts 45°
2026-04-26 02:49 21.25593 87.97966 18646 ft 310 kts 45°
2026-04-26 02:49 21.26993 87.99709 18798 ft 314 kts 45°
2026-04-26 02:50 21.28434 88.01503 19021 ft 318 kts 45°
2026-04-26 02:50 21.29887 88.03314 19224 ft 321 kts 45°
2026-04-26 02:50 21.31351 88.05140 19446 ft 324 kts 45°
2026-04-26 02:50 21.32810 88.06963 19670 ft 327 kts 45°
2026-04-26 02:51 21.34293 88.08820 19844 ft 330 kts 45°
2026-04-26 02:51 21.35791 88.10700 19850 ft 330 kts 45°
2026-04-26 02:51 21.37278 88.12573 19847 ft 329 kts 45°
2026-04-26 02:51 21.38760 88.14442 19844 ft 329 kts 45°
2026-04-26 02:52 21.40245 88.16314 19855 ft 329 kts 45°
2026-04-26 02:52 21.41715 88.18168 19854 ft 329 kts 45°
2026-04-26 02:52 21.43203 88.20044 19850 ft 330 kts 45°
2026-04-26 02:52 21.44689 88.21919 19859 ft 329 kts 45°
2026-04-26 02:53 21.46176 88.23797 19851 ft 329 kts 45°
2026-04-26 02:53 21.47663 88.25675 19864 ft 329 kts 45°
2026-04-26 02:53 21.49126 88.27526 19866 ft 329 kts 45°
2026-04-26 02:53 21.50613 88.29407 19864 ft 330 kts 45°
2026-04-26 02:54 21.52102 88.31292 19869 ft 330 kts 45°
2026-04-26 02:54 21.53588 88.33173 19865 ft 330 kts 45°
2026-04-26 02:54 21.55070 88.35050 19865 ft 330 kts 45°
2026-04-26 02:54 21.56558 88.36933 19873 ft 330 kts 45°
2026-04-26 02:55 21.58022 88.38786 19866 ft 330 kts 45°
2026-04-26 02:55 21.59530 88.40639 19860 ft 323 kts 36°
2026-04-26 02:55 21.61369 88.41826 19866 ft 299 kts 17°
2026-04-26 02:55 21.63298 88.42556 19858 ft 292 kts 11°
2026-04-26 02:56 21.65260 88.43169 19857 ft 293 kts 10°
2026-04-26 02:56 21.67223 88.43750 19851 ft 292 kts
2026-04-26 02:56 21.69191 88.44325 19713 ft 293 kts
2026-04-26 02:56 21.71145 88.44893 18787 ft 296 kts 10°
2026-04-26 02:57 21.73109 88.45445 17907 ft 294 kts 10°
2026-04-26 02:57 21.75080 88.45984 17035 ft 289 kts
2026-04-26 02:57 21.77014 88.46509 16200 ft 283 kts
2026-04-26 02:57 21.78901 88.47023 15421 ft 277 kts
2026-04-26 02:58 21.80748 88.47530 14665 ft 271 kts
2026-04-26 02:58 21.82563 88.48042 13884 ft 267 kts
2026-04-26 02:58 21.84344 88.48553 13093 ft 263 kts
2026-04-26 02:58 21.86101 88.49058 12245 ft 260 kts
2026-04-26 02:59 21.87858 88.49557 11144 ft 266 kts 10°
2026-04-26 02:59 21.89690 88.50060 9875 ft 276 kts
2026-04-26 02:59 21.91556 88.50556 8860 ft 277 kts 10°
2026-04-26 02:59 21.93395 88.51042 8162 ft 265 kts
2026-04-26 03:00 21.95152 88.51511 7462 ft 260 kts
2026-04-26 03:00 21.96956 88.51988 7015 ft 269 kts 10°
2026-04-26 03:00 21.98766 88.52453 6875 ft 262 kts
2026-04-26 03:00 22.00482 88.52898 6874 ft 251 kts
2026-04-26 03:01 22.02174 88.53339 6874 ft 250 kts
2026-04-26 03:01 22.03869 88.53780 6873 ft 250 kts
2026-04-26 03:01 22.05562 88.54223 6874 ft 250 kts
2026-04-26 03:01 22.07271 88.54508 6854 ft 246 kts 351°
2026-04-26 03:02 22.08425 88.53543 6786 ft 226 kts 257°
2026-04-26 03:02 22.07409 88.52218 6966 ft 242 kts 230°
2026-04-26 03:02 22.06322 88.50727 6916 ft 252 kts 237°
2026-04-26 03:02 22.05398 88.49118 6916 ft 254 kts 245°
2026-04-26 03:03 22.04721 88.47328 6711 ft 259 kts 261°
2026-04-26 03:03 22.05008 88.45495 6823 ft 248 kts 297°
2026-04-26 03:03 22.06231 88.44298 6862 ft 244 kts 334°
2026-04-26 03:03 22.07908 88.44129 6871 ft 247 kts
2026-04-26 03:04 22.09608 88.44475 6863 ft 249 kts
2026-04-26 03:04 22.11303 88.44913 6859 ft 250 kts
2026-04-26 03:04 22.12993 88.45362 6856 ft 250 kts 10°
2026-04-26 03:04 22.14660 88.45810 6853 ft 250 kts
2026-04-26 03:05 22.16352 88.46276 6856 ft 249 kts
2026-04-26 03:05 22.18033 88.46736 6855 ft 250 kts
2026-04-26 03:05 22.19721 88.47196 6855 ft 249 kts
2026-04-26 03:05 22.21420 88.47651 6860 ft 252 kts
2026-04-26 03:06 22.23116 88.48100 6858 ft 250 kts
2026-04-26 03:06 22.24238 88.48397 6858 ft 251 kts
2026-04-26 03:06 22.26484 88.48984 6856 ft 250 kts
2026-04-26 03:06 22.28179 88.49422 6857 ft 249 kts
2026-04-26 03:07 22.29300 88.49709 6854 ft 250 kts
2026-04-26 03:07 22.30994 88.50148 6857 ft 251 kts
2026-04-26 03:07 22.32690 88.50594 6858 ft 251 kts
2026-04-26 03:07 22.34390 88.51042 6858 ft 251 kts 10°
2026-04-26 03:08 22.36085 88.51488 6860 ft 249 kts 10°
2026-04-26 03:08 22.37775 88.51926 6859 ft 249 kts
2026-04-26 03:08 22.39465 88.52365 6861 ft 250 kts
2026-04-26 03:08 22.41148 88.52803 6862 ft 252 kts
2026-04-26 03:09 22.42852 88.53250 6863 ft 251 kts 10°
2026-04-26 03:09 22.44544 88.53692 6972 ft 249 kts
2026-04-26 03:09 22.46229 88.54134 7035 ft 250 kts
2026-04-26 03:09 22.47925 88.54589 7053 ft 252 kts
2026-04-26 03:10 22.49611 88.55051 7045 ft 251 kts
2026-04-26 03:10 22.51305 88.55517 7024 ft 250 kts
2026-04-26 03:10 22.52990 88.55991 7026 ft 250 kts
2026-04-26 03:10 22.54679 88.56458 7021 ft 250 kts
2026-04-26 03:11 22.56367 88.56919 7026 ft 253 kts 10°
2026-04-26 03:11 22.58067 88.57373 6999 ft 247 kts
2026-04-26 03:11 22.59737 88.57822 7012 ft 250 kts
2026-04-26 03:11 22.61393 88.58266 7007 ft 247 kts
2026-04-26 03:12 22.63077 88.58713 7008 ft 249 kts
2026-04-26 03:12 22.64770 88.59160 7009 ft 249 kts
2026-04-26 03:12 22.66456 88.59610 7007 ft 250 kts
2026-04-26 03:12 22.68125 88.60061 7008 ft 248 kts
2026-04-26 03:13 22.69803 88.60517 7009 ft 247 kts
2026-04-26 03:13 22.71477 88.60972 7014 ft 248 kts 10°
2026-04-26 03:13 22.73154 88.61421 7016 ft 249 kts
2026-04-26 03:13 22.74848 88.61875 7010 ft 251 kts
2026-04-26 03:14 22.76543 88.62333 6805 ft 251 kts
2026-04-26 03:14 22.78243 88.62806 6557 ft 253 kts 11°
2026-04-26 03:14 22.79920 88.63316 6289 ft 254 kts 11°
2026-04-26 03:14 22.81628 88.63842 5796 ft 252 kts 12°
2026-04-26 03:15 22.83320 88.64360 5301 ft 254 kts 11°
2026-04-26 03:15 22.85014 88.64884 4817 ft 252 kts 12°
2026-04-26 03:15 22.86729 88.65115 4366 ft 244 kts 340°
2026-04-26 03:15 22.88088 88.64250 3996 ft 226 kts 300°
2026-04-26 03:16 22.88656 88.62720 3577 ft 217 kts 275°
2026-04-26 03:16 22.88847 88.61082 3116 ft 220 kts 270°
2026-04-26 03:16 22.88973 88.59438 2657 ft 222 kts 270°
2026-04-26 03:16 22.89089 88.57726 2227 ft 232 kts 269°
2026-04-26 03:17 22.89201 88.55982 2040 ft 227 kts 267°
2026-04-26 03:17 22.89087 88.54333 2043 ft 211 kts 256°
2026-04-26 03:17 22.88680 88.52809 2038 ft 209 kts 238°
2026-04-26 03:17 22.87903 88.51497 2045 ft 218 kts 231°
2026-04-26 03:18 22.87000 88.50208 2024 ft 208 kts 230°
2026-04-26 03:18 22.86099 88.48970 2031 ft 208 kts 229°
2026-04-26 03:18 22.85212 88.47773 2021 ft 199 kts 219°
2026-04-26 03:18 22.84068 88.47041 2019 ft 187 kts 195°
2026-04-26 03:19 22.82756 88.46778 2023 ft 197 kts 187°
2026-04-26 03:19 22.81408 88.46632 2041 ft 197 kts 186°
2026-04-26 03:19 22.80055 88.46488 2033 ft 196 kts 187°
2026-04-26 03:19 22.78700 88.46331 2024 ft 193 kts 187°
2026-04-26 03:20 22.77400 88.46180 1972 ft 180 kts 187°
2026-04-26 03:20 22.76207 88.46041 1741 ft 166 kts 187°
2026-04-26 03:20 22.75004 88.45902 1531 ft 170 kts 187°
2026-04-26 03:20 22.73818 88.45764 1316 ft 170 kts 187°
2026-04-26 03:21 22.72729 88.45637 1103 ft 149 kts 187°
2026-04-26 03:21 22.71691 88.45512 915 ft 148 kts 186°
2026-04-26 03:21 22.70662 88.45390 724 ft 145 kts 186°
2026-04-26 03:21 22.69627 88.45268 553 ft 145 kts 185°
2026-04-26 03:22 22.68574 88.45145 363 ft 147 kts 185°
2026-04-26 03:22 22.67616 88.45033 193 ft 134 kts 183°
2026-04-26 03:22 22.66689 88.44923 36 ft 129 kts 183°
2026-04-26 03:22 22.65968 88.44844 29 ft 74 kts 186°
2026-04-26 03:23 22.65640 88.44805 31 ft 29 kts 187°
2026-04-26 03:23 22.65473 88.44758 29 ft 21 kts 201°
2026-04-26 03:23 22.65370 88.44694 28 ft 14 kts 217°
2026-04-26 03:23 22.65306 88.44633 30 ft 9 kts 224°
2026-04-26 03:24 22.65302 88.44629 28 ft 0 kts 224°